Wetterdaten: Woche 31.08.26 - 06.09.26 (KW36)
Datum Zeit Temp. 2m rel. Feuchte Luftdruck Regen Wind Richtung Sonne ET UV-Index Solar Taupunkt Böen
31.08.2026 00:00 18,6 °C 73 % 1010,6 hPa 0,0 mm 0,0 km/h (0 Bft) N 0,00 h 0,0 mm 0,0 UV-I 0 W/m² 13,8 °C 0,0 km/h (0 Bft)
31.08.2026 01:00 18,4 °C 75 % 1010,3 hPa 0,0 mm 0,0 km/h (0 Bft) N 0,00 h 0,0 mm 0,0 UV-I 0 W/m² 13,8 °C 0,0 km/h (0 Bft)
31.08.2026 02:00 18,1 °C 77 % 1010,1 hPa 0,0 mm 0,0 km/h (0 Bft) N 0,00 h 0,0 mm 0,0 UV-I 0 W/m² 14,0 °C 0,0 km/h (0 Bft)
31.08.2026 03:00 17,7 °C 79 % 1010,0 hPa 0,0 mm 0,0 km/h (0 Bft) N 0,00 h 0,0 mm 0,0 UV-I 0 W/m² 13,9 °C 0,4 km/h (0 Bft)
31.08.2026 04:00 17,9 °C 82 % 1010,0 hPa 0,0 mm 0,0 km/h (0 Bft) N 0,00 h 0,0 mm 0,0 UV-I 0 W/m² 14,7 °C 0,4 km/h (0 Bft)
31.08.2026 05:00 17,5 °C 83 % 1010,2 hPa 0,0 mm 0,0 km/h (0 Bft) N 0,00 h 0,0 mm 0,0 UV-I 0 W/m² 14,6 °C 1,5 km/h (1 Bft)
31.08.2026 06:00 17,4 °C 82 % 1010,4 hPa 0,0 mm 0,1 km/h (0 Bft) N 0,00 h 0,0 mm 0,0 UV-I 6 W/m² 14,3 °C 1,5 km/h (1 Bft)
31.08.2026 07:00 17,3 °C 82 % 1010,6 hPa 0,0 mm 0,0 km/h (0 Bft) N 0,00 h 0,0 mm 0,0 UV-I 25 W/m² 14,2 °C 0,4 km/h (0 Bft)
31.08.2026 08:00 17,7 °C 81 % 1010,8 hPa 0,0 mm 0,0 km/h (0 Bft) N 0,00 h 0,0 mm 0,0 UV-I 78 W/m² 14,3 °C 1,1 km/h (1 Bft)
31.08.2026 09:00 18,9 °C 73 % 1011,0 hPa 0,0 mm 0,6 km/h (0 Bft) W 0,00 h 0,0 mm 0,0 UV-I 128 W/m² 13,9 °C 5,3 km/h (1 Bft)
31.08.2026 10:00 19,3 °C 69 % 1011,0 hPa 0,0 mm 0,9 km/h (0 Bft) W 0,08 h 0,1 mm 0,0 UV-I 209 W/m² 13,5 °C 7,0 km/h (2 Bft)
31.08.2026 11:00 19,9 °C 67 % 1010,9 hPa 0,0 mm 0,7 km/h (0 Bft) W 0,67 h 0,1 mm 0,0 UV-I 434 W/m² 13,6 °C 9,3 km/h (2 Bft)
31.08.2026 12:00 21,3 °C 61 % 1010,9 hPa 0,0 mm 2,1 km/h (1 Bft) W 0,67 h 0,2 mm 0,0 UV-I 531 W/m² 13,4 °C 14,1 km/h (3 Bft)
31.08.2026 13:00 22,7 °C 53 % 1010,8 hPa 0,0 mm 5,3 km/h (1 Bft) W 1,00 h 0,3 mm 0,4 UV-I 773 W/m² 12,6 °C 26,3 km/h (4 Bft)
31.08.2026 14:00 22,5 °C 56 % 1010,7 hPa 1,8 mm 3,3 km/h (1 Bft) W 0,50 h 0,4 mm 0,4 UV-I 344 W/m² 13,2 °C 24,8 km/h (4 Bft)
31.08.2026 15:00 17,5 °C 83 % 1011,8 hPa 7,6 mm 3,4 km/h (1 Bft) W 0,00 h 0,2 mm 0,0 UV-I 28 W/m² 14,6 °C 14,3 km/h (3 Bft)
31.08.2026 16:00 17,1 °C 87 % 1012,1 hPa 0,3 mm 1,6 km/h (1 Bft) W 0,83 h 0,0 mm 0,0 UV-I 587 W/m² 14,9 °C 12,2 km/h (2 Bft)
31.08.2026 17:00 18,6 °C 81 % 1012,8 hPa 0,0 mm 5,5 km/h (1 Bft) W 0,17 h 0,2 mm 0,0 UV-I 184 W/m² 15,3 °C 19,6 km/h (3 Bft)
31.08.2026 18:00 18,8 °C 78 % 1013,3 hPa 0,0 mm 8,6 km/h (2 Bft) W 0,25 h 0,1 mm 0,0 UV-I 145 W/m² 14,8 °C 24,3 km/h (4 Bft)
31.08.2026 19:00 18,7 °C 77 % 1013,8 hPa 0,0 mm 7,7 km/h (2 Bft) W 0,33 h 0,1 mm 0,0 UV-I 66 W/m² 14,6 °C 22,0 km/h (4 Bft)
31.08.2026 20:00 18,0 °C 79 % 1014,8 hPa 0,0 mm 1,4 km/h (1 Bft) W 0,17 h 0,1 mm 0,0 UV-I 12 W/m² 14,4 °C 6,7 km/h (2 Bft)
31.08.2026 21:00 17,2 °C 83 % 1015,8 hPa 0,0 mm 0,1 km/h (0 Bft) N 0,00 h 0,0 mm 0,0 UV-I 0 W/m² 14,3 °C 1,7 km/h (1 Bft)
31.08.2026 22:00 16,6 °C 85 % 1016,5 hPa 0,0 mm 0,0 km/h (0 Bft) N 0,00 h 0,0 mm 0,0 UV-I 0 W/m² 14,0 °C 0,0 km/h (0 Bft)
31.08.2026 23:00 16,3 °C 86 % 1016,9 hPa 0,0 mm 0,6 km/h (0 Bft) W 0,00 h 0,0 mm 0,0 UV-I 0 W/m² 13,9 °C 4,8 km/h (1 Bft)
01.09.2026 00:00 16,4 °C 86 % 1017,1 hPa 0,0 mm 2,0 km/h (1 Bft) W 0,00 h 0,0 mm 0,0 UV-I 0 W/m² 14,0 °C 11,1 km/h (2 Bft)
Min-Datum _ 31.08.26 31.08.26 31.08.26 - 31.08.26 - - - - - 31.08.26 31.08.26
_ Min-Zeit 15:55 13:55 02:45 - 00:00 - - - - - 13:35 00:00
Minimum _ 15,8 °C 50 % 1009,9 hPa - 0,0 km/h (0 Bft) - - - - - 12,2 °C 0,0 km/h (0 Bft)
Max-Datum _ 31.08.26 31.08.26 31.08.26 31.08.26 31.08.26 - 31.08.26 31.08.26 31.08.26 31.08.26 31.08.26 31.08.26
_ Max-Zeit 13:55 16:15 23:30 15:30 15:35 - 10:55 14:00 13:25 13:30 16:55 14:50
Maximum _ 23,5 °C 89 % 1017,1 hPa 7,6 mm 13,0 km/h
W (3 Bft)
- 0,08 h 0,4 mm 0,7 UV-I 839 W/m² 15,7 °C 40,0 km/h
W (6 Bft)
Durchschnitt _ 18,4 °C 77 % 1012,1 hPa #9,7 mm 1,8 km/h (1 Bft) W #4:40 h #1,727 mm 0,4 UV-I 237 W/m² 14,1 °C 8,3 km/h (2 Bft)



© 1998 - 2026 www.pulheimwetter.de